Regional Weather Roundup
Issued by NWS Burlington, VT

Home | Current Version | Previous Version | Graphics & Text | Print | Product List | Glossary On
Versions: 1 2 3 4 5 6 7 8 9 10 11 12 13 14 15 16 17 18 19 20 21 22 23 24 25 26 27
000
ASUS41 KBTV 250910
RWRBTV
VERMONT REGIONAL WEATHER ROUNDUP
NATIONAL WEATHER SERVICE BURLINGTON VT
500 AM EDT SAT OCT 25 2014

NOTE: "FAIR" INDICATES FEW OR NO CLOUDS BELOW 12,000 FEET WITH NO
SIGNIFICANT WEATHER AND/OR OBSTRUCTIONS TO VISIBILITY.

* THESE REPORTS ARE NOT UNDER NWS QUALITY CONTROL AND/OR DO NOT
  REPORT WEATHER SUCH AS PRECIPITATION AND FOG.

VTZ001>019-251000-
_____VERMONT_____


CITY           SKY/WX    TMP DP  RH WIND       PRES   REMARKS
BURLINGTON     MOSUNNY   36  34  92 CALM      29.78S
MONTPELIER     MOSUNNY   32  31  96 CALM      29.78S
MORRISVILLE    FOG       32  31  96 CALM      29.77F VSB 1/4
ST. JOHNSBURY*   N/A     34  34 100 MISG      29.75S
LYNDONVILLE*   FAIR      33  31  94 CALM      29.76S
MIDDLEBURY*    FAIR      35  35 100 CALM      29.78S
RUTLAND*       SUNNY     36  34  93 SE3       29.79F
SPRINGFIELD    FOG       35  34  96 CALM      29.78S VSB 1/2
HIGHGATE*      FAIR      39  38  93 CALM      29.76R
NEWPORT*       FAIR      32  31  99 SW3       29.75S
BENNINGTON     CLOUDY    40  39  97 S3        29.82S
SUTTON*          N/A     32 N/A N/A MISG        N/A

_____LAKE CHAMPLAIN_____


CITY           SKY/WX    TMP DP  RH WIND       PRES   REMARKS
COLCHESTER RF*   N/A     46  46 100 S17         N/A
DIAMOND ISL*     N/A     43  41  93 S9          N/A

$$

NYZ007-026>031-035-052-083-251000-
_____NORTHERN NEW YORK_____


CITY           SKY/WX    TMP DP  RH WIND       PRES   REMARKS
PLATTSBURGH    MOSUNNY   43  40  89 SW5       29.76S
SARANAC LAKE   CLOUDY    39  38  96 SW7       29.78F FOG
MASSENA        SUNNY     39  37  92 SW7       29.80F
OGDENSBURG*    SUNNY     39  39 100 S3        29.80F
POTSDAM*       SUNNY     41  41 100 SW5       29.80F
WATERTOWN      CLOUDY    47  41  80 CALM      29.83F
ALBANY         MOSUNNY   45  39  79 CALM      29.84S
GLENS FALLS    FOG       42  41  96 S5        29.81S VSB 1/4

$$
NHZ002-005-011-251000-
_____NEW HAMPSHIRE_____


CITY           SKY/WX    TMP DP  RH WIND       PRES   REMARKS
LEBANON        FOG       33  31  92 CALM      29.76F VSB 1/2
KEENE          CLOUDY    37  30  75 CALM      29.78S VSB 1/4
MT WASHINGTON  MOSUNNY   28  27  93 NW54        N/A  WCI   9
PLYMOUTH       FAIR      43  38  81 NW6       29.73S
WHITEFIELD     FOG       34  32  92 CALM      29.75S VSB 1/2

$$

_____REGIONAL QUEBEC LOCATIONS_____


CITY           SKY/WX    TMP DP  RH WIND       PRES   REMARKS
MONTREAL       MOSUNNY   43  39  87 SW6       29.74S
QUEBEC CITY    MOSUNNY   32  30  93 CALM      29.71F
SHERBROOKE     MOSUNNY   30  30 100 E2        29.72F

_____REGIONAL ONTARIO LOCATIONS_____


CITY           SKY/WX    TMP DP  RH WIND       PRES   REMARKS
OTTAWA         SUNNY     39  34  81 W5        29.77F

______KEY______
VSB  - VISIBILITY IN MILES
WCI  - WIND CHILL INDEX
HX   - HEAT INDEX
$$
NNNN



USA.gov is the U.S. government's official web portal to all federal, state and local government web resources and services.